DW8039 Weather Reports


Display with metric or nautical units.
time (UTC)temp
F
wind
direction
speed
MPH
gust
MPH
rain 1hr
in
rain 24hr
in
rain mn
in
humidity
%
barometer
mb
20260505233903 49 3 0.0 0.0 0.00 0.00 0.00 81 1014.3
20260505233404 49 3 0.0 0.0 0.00 0.00 0.00 81 1014.3
20260505232403 49 5 0.0 3.0 0.00 0.00 0.00 80 1014.3
20260505230903 50 13 2.0 3.0 0.00 0.00 0.00 80 1014.3
20260505230403 50 355 1.0 3.0 0.00 0.00 0.00 80 1014.4
20260505225904 50 355 2.0 3.0 0.00 0.00 0.00 79 1014.4
20260505225404 50 355 2.0 5.0 0.00 0.00 0.00 79 1014.4
20260505223904 50 7 2.0 5.0 0.00 0.00 0.00 78 1014.4
20260505223404 50 13 3.0 8.0 0.00 0.00 0.00 78 1014.4
20260505222903 50 19 3.0 6.0 0.00 0.00 0.00 78 1014.5
20260505222412 50 354 2.0 6.0 0.00 0.00 0.00 78 1014.5
20260505220904 50 37 3.0 6.0 0.00 0.00 0.00 77 1014.5
20260505220403 50 19 3.0 6.0 0.00 0.00 0.00 77 1014.5
20260505215904 50 7 3.0 8.0 0.00 0.00 0.00 77 1014.5
20260505215403 50 4 3.0 9.0 0.00 0.00 0.00 76 1014.5
20260505213904 51 29 4.0 8.0 0.00 0.00 0.00 75 1014.6
20260505213404 51 358 5.0 13.0 0.00 0.00 0.00 75 1014.6
20260505212903 51 14 5.0 8.0 0.00 0.00 0.00 75 1014.5
20260505212404 51 351 4.0 9.0 0.00 0.00 0.00 74 1014.5
20260505210904 51 356 5.0 10.0 0.00 0.00 0.00 73 1014.6
20260505210403 51 359 4.0 9.0 0.00 0.00 0.00 73 1014.6
20260505205903 51 22 4.0 9.0 0.00 0.00 0.00 73 1014.6
20260505205404 52 5 5.0 10.0 0.00 0.00 0.00 72 1014.6
20260505203904 52 17 4.0 9.0 0.00 0.00 0.00 71 1014.5
20260505203403 52 35 4.0 8.0 0.00 0.00 0.00 71 1014.5
20260505202904 53 341 4.0 8.0 0.00 0.00 0.00 71 1014.5
20260505202404 53 12 3.0 12.0 0.00 0.00 0.00 71 1014.5
20260505200903 53 11 3.0 12.0 0.00 0.00 0.00 69 1014.4
20260505200404 53 345 4.0 12.0 0.00 0.00 0.00 69 1014.4
20260505195904 54 338 3.0 10.0 0.00 0.00 0.00 68 1014.3
20260505195404 54 20 4.0 12.0 0.00 0.00 0.00 68 1014.2
20260505193904 54 348 4.0 12.0 0.00 0.00 0.00 66 1014.2
20260505193404 54 8 7.0 14.0 0.00 0.00 0.00 65 1014.1
20260505192904 55 18 5.0 10.0 0.00 0.00 0.00 64 1014.0
20260505192403 55 6 4.0 10.0 0.00 0.00 0.00 63 1014.0
20260505190904 55 350 6.0 12.0 0.00 0.00 0.00 61 1013.9
20260505190403 56 12 5.0 12.0 0.00 0.00 0.00 60 1013.9
20260505185903 56 0 5.0 12.0 0.00 0.00 0.00 61 1013.8
20260505185404 56 5 5.0 14.0 0.00 0.00 0.00 60 1013.8
20260505183904 57 340 7.0 15.0 0.00 0.00 0.00 58 1013.7
20260505183404 57 18 8.0 13.0 0.00 0.00 0.00 58 1013.7
20260505182904 57 339 5.0 10.0 0.00 0.00 0.00 59 1013.6
20260505182403 57 356 6.0 14.0 0.00 0.00 0.00 58 1013.6
20260505180904 58 320 6.0 13.0 0.00 0.00 0.00 59 1013.7
20260505180404 58 358 6.0 13.0 0.00 0.00 0.00 58 1013.7
20260505175903 58 0 6.0 12.0 0.00 0.00 0.00 57 1013.6
20260505175404 59 345 5.0 14.0 0.00 0.00 0.00 58 1013.6
20260505173903 59 9 5.0 13.0 0.00 0.00 0.00 57 1013.6
20260505173403 59 336 7.0 14.0 0.00 0.00 0.00 56 1013.5
20260505172903 59 2 9.0 16.0 0.00 0.00 0.00 57 1013.5
20260505172404 59 321 6.0 20.0 0.00 0.00 0.00 57 1013.5
20260505170903 60 0 9.0 13.0 0.00 0.00 0.00 55 1013.6
20260505170403 60 24 6.0 14.0 0.00 0.00 0.00 55 1013.6
20260505165904 61 335 7.0 12.0 0.00 0.00 0.00 55 1013.6
20260505165403 61 29 5.0 12.0 0.00 0.00 0.00 55 1013.6
20260505163903 62 15 6.0 9.0 0.00 0.00 0.00 54 1013.6
20260505163404 62 349 6.0 12.0 0.00 0.00 0.00 55 1013.7
20260505162904 62 18 6.0 12.0 0.00 0.00 0.00 53 1013.6
20260505162404 62 354 3.0 12.0 0.00 0.00 0.00 55 1013.6
20260505160903 62 38 5.0 12.0 0.00 0.00 0.00 53 1013.7
20260505152904 63 335 5.0 9.0 0.00 0.00 0.00 53 1013.8
20260505152405 62 334 3.0 12.0 0.00 0.00 0.00 53 1013.8
20260505150403 62 337 5.0 10.0 0.00 0.00 0.00 55 1013.9
20260505140404 61 0 5.0 9.0 0.00 0.00 0.00 61 1014.3
20260505123903 59 16 5.0 10.0 0.00 0.00 0.00 66 1014.5
20260505123404 59 27 5.0 9.0 0.00 0.00 0.00 67 1014.6
20260505122404 58 350 5.0 12.0 0.00 0.00 0.00 69 1014.6
20260505120903 58 341 5.0 14.0 0.00 0.00 0.00 69 1014.6
20260505115904 58 19 6.0 12.0 0.00 0.00 0.00 69 1014.6
20260505115404 58 22 5.0 12.0 0.00 0.00 0.00 70 1014.6
20260505113904 60 41 5.0 10.0 0.00 0.00 0.00 71 1014.6
20260505113403 59 340 6.0 9.0 0.00 0.00 0.00 72 1014.6
20260505112904 58 32 3.0 9.0 0.00 0.00 0.00 71 1014.6
20260505110904 59 0 2.0 5.0 0.00 0.00 0.00 76 1014.7
20260505110404 58 34 3.0 6.0 0.00 0.00 0.00 74 1014.7
20260505100904 57 4 3.0 6.0 0.00 0.00 0.00 73 1014.9
20260505100403 57 49 2.0 6.0 0.00 0.00 0.00 72 1015.0
20260505095904 57 51 2.0 5.0 0.00 0.00 0.00 73 1015.0
20260505095403 57 46 3.0 8.0 0.00 0.00 0.00 73 1014.9
20260505093904 57 41 4.0 10.0 0.00 0.00 0.00 74 1014.8
20260505093404 57 30 5.0 10.0 0.00 0.00 0.00 73 1014.7
20260505092404 57 25 3.0 12.0 0.00 0.00 0.00 75 1014.8
20260505090904 56 47 4.0 9.0 0.00 0.00 0.00 76 1014.8
20260505085904 56 19 3.0 7.0 0.00 0.00 0.00 76 1014.7
20260505085403 56 53 3.0 8.0 0.00 0.00 0.00 75 1014.7
20260505083904 57 57 1.0 7.0 0.00 0.00 0.00 75 1014.6
20260505082904 58 17 3.0 6.0 0.00 0.00 0.00 74 1014.5
20260505082403 58 47 2.0 9.0 0.00 0.00 0.00 75 1014.5
20260505080904 58 34 3.0 7.0 0.00 0.00 0.00 74 1014.6
20260505080403 57 46 3.0 12.0 0.00 0.00 0.00 75 1014.6
20260505075903 57 33 3.0 7.0 0.00 0.00 0.00 76 1014.6
20260505075403 57 24 4.0 12.0 0.00 0.00 0.00 77 1014.6
20260505073904 55 9 4.0 10.0 0.00 0.00 0.00 80 1014.5
20260505073404 55 34 3.0 6.0 0.00 0.00 0.00 81 1014.5
20260505072403 54 73 2.0 6.0 0.00 0.00 0.00 82 1014.5
20260505070904 53 40 2.0 5.0 0.00 0.00 0.00 84 1014.6
20260505070404 53 46 1.0 3.0 0.00 0.00 0.00 85 1014.6
20260505065404 52 24 3.0 6.0 0.00 0.00 0.00 86 1014.6
20260505063904 52 25 3.0 5.0 0.00 0.00 0.00 87 1014.5
20260505062904 51 12 3.0 6.0 0.00 0.00 0.00 90 1014.5
20260505062403 51 26 1.0 3.0 0.00 0.00 0.00 91 1014.4
20260505060903 50 27 1.0 3.0 0.00 0.00 0.00 91 1014.4
20260505055904 50 20 2.0 3.0 0.00 0.00 0.00 92 1014.4
20260505055405 49 14 1.0 2.0 0.00 0.00 0.00 92 1014.4
20260505053904 49 13 2.0 3.0 0.00 0.00 0.00 92 1014.4
20260505053404 49 9 2.0 3.0 0.00 0.00 0.00 91 1014.4
20260505052903 49 9 1.0 3.0 0.00 0.00 0.00 91 1014.4
20260505052404 49 11 2.0 3.0 0.00 0.00 0.00 91 1014.4
20260505050904 49 12 1.0 2.0 0.00 0.00 0.00 91 1014.3
20260505040904 50 11 0.0 0.0 0.00 0.00 0.00 90 1014.1
20260505040404 50 11 0.0 0.0 0.00 0.00 0.00 90 1014.1
20260505035904 50 11 0.0 0.0 0.00 0.00 0.00 90 1014.0
20260505033404 51 5 0.0 0.0 0.00 0.00 0.00 89 1014.0
20260505032903 51 5 0.0 0.0 0.00 0.00 0.00 89 1014.0
20260505032403 51 5 1.0 3.0 0.00 0.00 0.00 89 1014.1
20260505030904 52 5 0.0 0.0 0.00 0.00 0.00 89 1014.0
20260505030404 52 5 0.0 0.0 0.00 0.00 0.00 89 1014.1
20260505025904 52 5 0.0 0.0 0.00 0.00 0.00 89 1014.1
20260505023403 52 5 0.0 0.0 0.00 0.00 0.00 88 1014.2
20260505022403 53 5 1.0 3.0 0.00 0.00 0.00 88 1014.2
20260505020904 53 32 1.0 3.0 0.00 0.00 0.00 88 1014.2
20260505020404 53 30 2.0 3.0 0.00 0.00 0.00 88 1014.2
20260505015904 53 30 2.0 3.0 0.00 0.00 0.00 88 1014.2
20260505015404 53 30 2.0 3.0 0.00 0.00 0.00 89 1014.2
20260505013903 52 32 2.0 3.0 0.00 0.00 0.00 90 1014.3
20260505012903 52 28 1.0 3.0 0.00 0.00 0.00 90 1014.5
20260505012403 52 29 2.0 5.0 0.00 0.00 0.00 91 1014.5
20260505010904 52 31 2.0 3.0 0.00 0.00 0.00 91 1014.8
20260505010404 52 30 0.0 2.0 0.00 0.00 0.00 91 1014.7
20260505005904 52 30 1.0 3.0 0.00 0.00 0.00 91 1014.7
20260505005404 52 28 1.0 3.0 0.00 0.00 0.00 91 1014.7
20260505003904 52 32 1.0 2.0 0.00 0.00 0.00 91 1014.8
20260505002404 52 33 2.0 3.0 0.00 0.00 0.00 91 1014.8
20260505000904 52 34 3.0 5.0 0.00 0.00 0.00 90 1014.8
20260505000405 52 35 1.0 3.0 0.00 0.00 0.00 90 1014.8
20260504235904 52 38 2.0 3.0 0.00 0.00 0.00 90 1014.9
20260504235404 52 41 2.0 5.0 0.00 0.00 0.00 90 1014.8